Tracking 25711 objects as of 22-May-2022
HD Live streaming from Space Station
objects crossing your sky now

FLOCK 3R 5

Track FLOCK 3R 5 now!
10-day predictions
FLOCK 3R 5 is classified as:


NORAD ID: 43726
Int'l Code: 2018-096H
Perigee: 428.8 km
Apogee: 445.5 km
Inclination: 97.4 °
Period: 93.2 minutes
Semi major axis: 6808 km
RCS: Unknown
Launch date: November 29, 2018
Source: United States (US)
Launch site: SRIHARIKOTA (SRI)
aabbcc
Your satellite tracking list
Your tracking list is empty




NASA's NSSDC Master Catalog

Two Line Element Set (TLE):
1 43726U 18096H   22141.76753391  .00079943  00000-0  16515-2 0  9999
2 43726  97.3580 226.9178 0012291 142.2299 217.9815 15.45470932194181
Source of the keplerian elements: AFSPC